Location: Champseau
(45.8333°N, 1.7667°E)
Time: 10:26:19
(UTC+00:00)

CAS-4A - Visible Passes

Search period start: 07 December 2021 00:00
Search period end: 17 December 2021 00:00
Orbit: 529 x 539 km, 43.0° (Epoch: 06 December)

Date Brightness Start Highest point End Pass type
(mag) Time Alt. Az. Time Alt. Az. Time Alt. Az.
07 Dec ? 17:35:27 10° SSE 17:36:30 11° SE 17:37:31 10° SE visible
07 Dec ? 19:12:06 10° SW 19:12:49 14° SW 19:12:49 14° SW visible
08 Dec ? 17:23:12 10° S 17:25:12 13° SE 17:27:03 10° ESE visible
08 Dec ? 19:00:48 10° SW 19:02:21 21° SW 19:02:21 21° SW visible
09 Dec ? 17:11:22 10° S 17:13:56 16° SSE 17:16:30 10° ESE visible
09 Dec ? 18:49:31 10° SW 18:51:50 29° SW 18:51:50 29° SW visible
10 Dec ? 16:59:43 10° SSW 17:02:40 19° SSE 17:05:37 10° ESE visible
10 Dec ? 18:38:16 10° WSW 18:41:16 39° SSW 18:41:16 39° SSW visible
11 Dec ? 16:48:10 10° SSW 16:51:24 23° SSE 16:54:38 10° E visible
11 Dec ? 18:27:02 10° WSW 18:30:41 49° S 18:30:41 49° S visible
12 Dec ? 16:36:42 10° SSW 16:40:09 26° SSE 16:43:36 10° E visible
12 Dec ? 18:15:49 10° WSW 18:19:50 54° S 18:20:04 53° SSE visible
13 Dec ? 18:04:36 10° WSW 18:08:38 57° S 18:09:28 46° SE visible
13 Dec ? 19:44:33 10° W 19:44:45 11° W 19:44:45 11° W visible
14 Dec ? 17:53:25 10° WSW 17:57:27 58° S 17:58:52 36° ESE visible
14 Dec ? 19:33:24 10° W 19:34:10 15° W 19:34:10 15° W visible
15 Dec ? 17:42:13 10° W 17:46:16 59° S 17:48:18 27° ESE visible
15 Dec ? 19:22:15 10° W 19:23:36 19° WSW 19:23:36 19° WSW visible
16 Dec ? 17:31:02 10° W 17:35:04 59° S 17:37:46 20° ESE visible
16 Dec ? 19:11:07 10° W 19:13:04 23° WSW 19:13:04 23° WSW visible
